RH
82 81 80 79 79 75 75 71 78 76 69 56 64 63 56 51 46 46 47 53 48 55 73 79 77 75 71 60 45 37 32 33 37 44 50 59 64 72 81 83 78 75 81 82
88 82 80 76 71 70 66 66 65 61 61 70 68 62 59 54 54 50 56 63 61 81 92 93 88 85 74 54 35 26 24 27 30 39 51 59 61 64 67 72 73 78 80 87
85 82 79 84 72 65 60 57 63 71 76 67 64 69 69 62 61 71 92 90 92 97 96 88 90 83 61 48 38 33 25 22 28 42 58 75 84 83 79 73 77 83 86 88
94 83 93 66 53 53 56 62 65 70 72 75 76 66 64 64 76 92 98 98 94 89 83 84 81 69 57 54 43 38 34 30 29 43 67 86 91 93 85 84 85 87 91 90
89 81 70 57 44 60 68 71 78 82 79 74 69 60 55 65 87 98 97 99 95 84 77 68 69 62 61 60 50 42 36 35 35 44 71 91 96 90 90 91 89 88 86 97
75 85 86 62 74 75 74 81 74 80 72 67 62 61 56 81 91 96 97 92 86 82 75 73 65 65 65 61 55 48 41 39 39 44 66 83 96 96 95 92 91 92 94 97
77 87 86 92 96 90 96 87 74 69 63 59 60 67 80 91 94 94 92 83 81 82 82 78 70 67 66 67 66 55 47 41 42 43 58 77 96 95 95 96 97 97 98 98
85 94 89 84 78 81 73 67 66 61 56 58 58 77 93 96 95 93 86 75 68 69 75 76 75 72 73 75 67 62 53 47 44 44 51 74 94 97 97 96 96 97 98 97
79 72 62 64 69 63 61 62 67 71 59 62 80 93 96 92 93 89 85 79 73 66 65 68 72 74 74 71 68 61 52 50 48 47 49 65 84 97 97 97 97 97 97 97
67 59 64 61 62 68 78 83 87 85 85 94 96 95 93 87 77 72 67 63 60 59 55 53 56 58 60 64 70 65 57 52 53 51 50 56 81 97 97 97 97 97 97 97
72 72 71 76 79 85 90 94 96 99 99 97 93 87 76 74 72 69 66 64 64 62 61 58 57 57 60 60 63 64 61 56 55 55 54 53 74 96 97 97 97 97 97 97
70 66 75 78 83 88 90 93 96 96 93 88 83 74 69 66 62 62 59 58 55 54 63 68 68 69 70 70 69 72 68 63 62 60 61 56 63 91 97 97 97 95 94 96
62 66 75 80 88 91 96 96 92 87 78 76 74 71 68 63 59 55 52 51 50 46 46 47 53 62 74 78 76 69 65 67 68 68 65 65 60 84 97 97 94 95 94 91
68 77 82 86 88 87 84 82 80 78 73 71 67 64 58 53 50 47 46 46 44 43 42 41 41 44 55 79 81 76 75 81 82 79 73 72 62 70 90 96 95 94 95 96
75 81 82 80 81 81 77 74 73 71 69 61 56 50 46 44 44 44 44 45 44 46 46 43 41 41 43 51 73 84 87 84 81 81 81 77 71 63 83 91 96 97 97 97
77 75 75 77 78 76 74 75 73 69 63 60 57 50 46 47 46 46 45 45 47 48 47 45 45 44 42 45 52 78 86 85 87 88 88 81 74 65 74 82 96 97 97 97
79 76 79 80 78 76 74 74 73 72 72 71 66 59 58 58 57 54 51 51 52 49 47 46 45 44 44 45 47 58 86 92 93 90 81 84 79 70 72 76 92 98 98 98
84 85 86 87 86 87 86 83 84 83 82 79 74 66 64 62 60 57 54 54 55 50 46 47 46 46 46 46 49 52 77 95 97 95 87 79 76 74 78 78 90 97 98 98
87 90 92 91 89 90 91 90 87 84 82 75 68 65 62 61 58 55 53 50 53 43 41 42 43 46 46 47 51 52 64 91 97 97 97 97 91 82 87 82 85 97 97 97
93 92 92 91 90 91 92 93 91 85 79 76 75 70 65 66 66 62 56 51 50 41 36 38 40 42 46 48 52 55 63 89 97 97 97 97 97 85 88 84 97 97 97 97
93 94 91 91 87 84 87 87 84 80 79 80 79 74 71 70 71 70 68 64 55 45 40 39 38 40 44 50 56 58 63 85 97 97 97 97 97 98 98 88 91 97 98 97
86 83 84 82 79 76 76 76 76 76 79 85 84 83 83 82 80 77 76 72 62 52 47 42 38 39 40 44 54 63 67 81 97 98 97 97 97 97 95 92 91 92 97 97
74 73 75 76 77 76 76 78 79 81 84 85 84 84 86 85 85 82 78 77 74 68 58 51 44 42 39 38 44 56 69 81 93 98 98 97 97 97 97 97 97 97 97 97
60 63 65 66 68 71 71 71 74 80 84 84 86 86 84 80 78 77 73 70 70 67 63 61 56 49 43 40 40 44 60 79 89 97 98 98 98 98 97 97 97 97 97 97
71 72 71 71 72 71 73 77 81 82 80 81 82 81 79 76 69 59 54 54 60 59 60 60 58 57 54 48 41 43 45 67 89 94 98 98 98 98 98 97 97 97 97 97
75 75 75 76 76 70 66 68 72 74 74 73 73 71 68 64 57 48 44 42 41 41 44 47 49 52 53 56 50 43 45 47 75 93 97 98 98 98 98 98 98 97 97 97
68 68 69 70 71 67 67 69 69 69 69 68 64 63 62 58 51 46 43 41 40 40 39 37 37 40 43 49 56 51 47 46 50 79 95 95 98 98 98 98 98 98 98 97